Weather History for Pensacola, FL

Change the Weather History Date:

Friday, November 1, 2013

  Actual Average Record
Temperature  
Mean Temperature 69 °F 65 °F  
Max Temperature 77 °F 74 °F 85 °F (1950)
Min Temperature 60 °F 55 °F 30 °F (1993)
Degree Days  
Heating Degree Days 0 3  
Month to date heating degree days 0 3  
Since 1 July heating degree days 15 41  
Cooling Degree Days 4 3  
Month to date cooling degree days 4 3  
Year to date cooling degree days 2693 2553  
Growing Degree Days 20 (Base 50)    
Moisture  
Dew Point 69 °F    
Average Humidity 86    
Maximum Humidity 93    
Minimum Humidity 79    
Precipitation  
Precipitation 0.72 in 0.17 in 4.90 in (1995)
Month to date precipitation 0.72 0.17  
Year to date precipitation 66.27 56.16  
Sea Level Pressure  
Sea Level Pressure 29.83 in    
Wind  
Wind Speed 8 mph (WSW)    
Max Wind Speed 17 mph    
Max Gust Speed 25 mph    
Visibility 7 miles    
Events Rain    
T = Trace of Precipitation, MM = Missing Value Source: NWS Daily Summary

Daily Weather History Graph

Daily Weather History Graph

Search for Another Location

Airport:

Trip Planner

Search our weather history database for the weather conditions in past years. The results will help you decide how hot, cold, wet, or windy it might be!

Date:

Astronomy

Nov. 01, 2013 Rise Set
Actual Time 7:03 AM CDT 6:00 PM CDT
Civil Twilight 6:38 AM CDT 6:25 PM CDT
Nautical Twilight 6:10 AM CDT 6:54 PM CDT
Astronomical Twilight 5:41 AM CDT 7:22 PM CDT
Moon 5:02 AM CDT (11/1) 4:48 PM CDT (11/1)
Length of Visible Light 11h 46m
Length of Day
10h 57m
Waning Crescent, 4% of the Moon is Illuminated
Nov 1
Waning Crescent
Nov 3
New
Nov 9
First Quarter
Nov 17
Full
Nov 25
Last Quarter

Hourly Weather History & Observations

Time (CDT) Temp. Dew Point Humidity Pressure Visibility Wind Dir Wind Speed Gust Speed Precip Events Conditions
12:21 AM 77.0 °F 71.6 °F 83% 29.88 in 10.0 mi South 9.2 mph - N/A   Scattered Clouds
12:53 AM 77.0 °F 72.0 °F 84% 29.86 in 10.0 mi South 12.7 mph - N/A   Mostly Cloudy
1:53 AM 75.9 °F 73.0 °F 91% 29.84 in 7.0 mi South 12.7 mph - 0.02 in Rain Light Rain
2:27 AM 75.2 °F 73.4 °F 94% 29.84 in 10.0 mi SSW 9.2 mph - 0.01 in   Mostly Cloudy
2:53 AM 75.9 °F 73.0 °F 91% 29.82 in 9.0 mi South 10.4 mph - 0.01 in Rain Light Rain
3:53 AM 75.9 °F 73.0 °F 91% 29.82 in 8.0 mi SSW 6.9 mph - 0.00 in   Overcast
4:10 AM 75.2 °F 73.4 °F 94% 29.81 in 9.0 mi SSW 8.1 mph - N/A   Overcast
4:53 AM 77.0 °F 73.0 °F 88% 29.82 in 9.0 mi SW 9.2 mph - N/A   Overcast
5:31 AM 77.0 °F 73.4 °F 89% 29.82 in 10.0 mi SW 10.4 mph - N/A   Overcast
5:41 AM 77.0 °F 73.4 °F 89% 29.82 in 9.0 mi SW 8.1 mph - N/A   Overcast
5:53 AM 77.0 °F 73.0 °F 88% 29.82 in 2.0 mi SSW 18.4 mph 25.3 mph 0.08 in Rain Heavy Rain
5:58 AM 77.0 °F 71.6 °F 83% 29.81 in 3.0 mi SW 12.7 mph 25.3 mph 0.03 in Rain Light Rain
6:36 AM 75.2 °F 73.4 °F 94% 29.81 in 7.0 mi SSW 3.5 mph - 0.04 in   Overcast
6:43 AM 75.2 °F 73.4 °F 94% 29.81 in 7.0 mi SSW 4.6 mph - 0.04 in   Overcast
6:53 AM 75.9 °F 73.9 °F 94% 29.81 in 5.0 mi SSW 4.6 mph - 0.04 in Rain Light Rain
7:20 AM 75.2 °F 73.4 °F 94% 29.81 in 10.0 mi SW 8.1 mph - 0.06 in Rain Light Rain
7:53 AM 75.0 °F 72.0 °F 90% 29.83 in 4.0 mi West 9.2 mph - 0.06 in Rain Light Rain
8:33 AM 73.4 °F 71.6 °F 94% 29.83 in 2.5 mi West 5.8 mph - 0.09 in Rain Light Rain
8:42 AM 73.4 °F 71.6 °F 94% 29.83 in 0.8 mi West 6.9 mph - 0.16 in Rain Heavy Rain
8:53 AM 73.9 °F 71.1 °F 91% 29.84 in 2.5 mi SW 9.2 mph 16.1 mph 0.35 in Rain Light Rain
9:00 AM 73.4 °F 71.6 °F 94% 29.83 in 6.0 mi WSW 4.6 mph - 0.00 in Rain Light Rain
9:15 AM 73.4 °F 71.6 °F 94% 29.84 in 2.0 mi WNW 6.9 mph - 0.01 in Rain Rain
9:30 AM 73.4 °F 71.6 °F 94% 29.84 in 8.0 mi NW 6.9 mph - 0.03 in   Overcast
9:51 AM 71.6 °F 69.8 °F 94% 29.86 in 6.0 mi NW 13.8 mph - 0.03 in Rain Light Rain
9:53 AM 71.1 °F 68.0 °F 90% 29.86 in 6.0 mi NW 11.5 mph - 0.03 in Rain Light Rain
10:53 AM 70.0 °F 66.0 °F 87% 29.87 in 10.0 mi North 8.1 mph 18.4 mph 0.00 in Rain Light Rain
11:53 AM 72.0 °F 64.9 °F 78% 29.86 in 10.0 mi North 11.5 mph - 0.00 in Rain Light Rain
12:00 PM 71.6 °F 64.4 °F 78% 29.86 in 10.0 mi North 8.1 mph - 0.00 in   Overcast
12:53 PM 70.0 °F 66.0 °F 87% 29.85 in 8.0 mi NNW 8.1 mph - 0.00 in Rain Light Rain
1:53 PM 70.0 °F 66.0 °F 87% 29.83 in 10.0 mi NW 6.9 mph - 0.00 in Rain Light Rain
2:25 PM 69.8 °F 64.4 °F 83% 29.83 in 1.8 mi NW 3.5 mph - 0.02 in Rain Rain
2:43 PM 68.0 °F 64.4 °F 88% 29.81 in 2.0 mi Calm Calm - 0.11 in Rain Light Rain
2:53 PM 68.0 °F 64.9 °F 90% 29.81 in 4.0 mi Calm Calm - 0.12 in Rain Light Rain
3:00 PM 68.0 °F 64.4 °F 88% 29.80 in 8.0 mi Calm Calm - 0.00 in Rain Light Rain
3:30 PM 68.0 °F 64.4 °F 88% 29.80 in 6.0 mi South 3.5 mph - 0.01 in Rain Light Rain
3:53 PM 68.0 °F 66.0 °F 93% 29.80 in 10.0 mi South 4.6 mph - 0.01 in   Overcast
4:20 PM 69.8 °F 66.2 °F 88% 29.80 in 10.0 mi SSW 4.6 mph - N/A   Overcast
4:53 PM 70.0 °F 64.9 °F 84% 29.81 in 10.0 mi WSW 5.8 mph - N/A   Mostly Cloudy
5:38 PM 69.8 °F 64.4 °F 83% 29.80 in 10.0 mi West 3.5 mph - N/A   Mostly Cloudy
5:53 PM 69.1 °F 64.0 °F 84% 29.81 in 10.0 mi WSW 4.6 mph - N/A   Partly Cloudy
6:53 PM 66.9 °F 64.0 °F 90% 29.83 in 10.0 mi WSW 4.6 mph - N/A   Partly Cloudy
7:53 PM 66.9 °F 64.0 °F 90% 29.86 in 10.0 mi West 5.8 mph - N/A   Clear
8:53 PM 66.9 °F 64.0 °F 90% 29.88 in 10.0 mi West 8.1 mph - N/A   Clear
9:53 PM 66.0 °F 63.0 °F 90% 29.89 in 10.0 mi WNW 5.8 mph - N/A   Clear
10:53 PM 64.0 °F 61.0 °F 90% 29.90 in 10.0 mi NW 5.8 mph - N/A   Clear
11:53 PM 62.1 °F 57.9 °F 86% 29.90 in 10.0 mi NNW 4.6 mph - N/A   Clear